Location: Newark
(27.9675°N, 86.8869°E)
Time: 11:59:03
(UTC+00:00)

Courier 1B Rocket - Pass Details

Date: 21 October 2019
Orbit: 920 x 1202 km, 28.2° (Epoch: 17 November)

Event Time Altitude Azimuth Distance (km) Brightness Sun altitude
Rises 04:22:07 0° 262° (W) 3,702 7.8 45.1°
Reaches altitude 10° 04:26:30 10° 235° (SW) 2,815 7.6 45.6°
Maximum altitude 04:29:22 13° 210° (SSW) 2,648 7.7 46.0°
Drops below altitude 10° 04:32:19 10° 185° (S) 2,902 8.2 46.3°
Sets 04:37:02 0° 159° (SSE) 3,927 8.9 46.8°
